Wind_Speed
29 30 30 29 28 28 27 27 27 28 31 34 34 27 24 25 23 22 19 16 16 15 12 7 5 7 7 7 10 9 10 10 9 12 15 25 25 35 24 35 35 52 46 39 44 39 34
30 31 31 30 30 30 29 28 28 30 32 34 33 28 25 26 24 22 18 17 16 16 12 6 6 7 9 8 12 12 8 7 10 12 9 22 30 34 31 35 25 40 40 37 47 38 33
29 31 33 33 34 33 31 29 29 30 31 34 32 29 25 26 25 21 18 18 19 16 13 6 7 4 7 10 15 12 8 6 4 14 13 21 26 26 28 25 32 23 33 46 42 40 24
27 29 31 32 34 36 35 32 31 31 31 34 31 28 24 27 26 20 17 18 20 18 14 5 3 6 6 11 14 9 7 4 2 4 21 25 25 30 19 19 21 25 32 40 41 31 24
24 26 29 31 34 36 37 34 32 31 31 33 31 28 23 25 27 19 17 19 21 24 19 3 2 6 7 12 12 8 7 3 5 6 18 23 22 32 13 15 22 24 30 35 28 34 28
23 25 28 30 33 35 37 36 34 31 31 32 33 29 24 21 25 20 15 20 25 25 15 13 8 6 11 9 10 6 4 4 2 11 16 19 21 19 23 19 16 23 25 36 35 30 33
21 24 26 29 31 33 35 37 36 33 30 29 32 28 28 24 20 22 14 14 20 31 21 16 13 12 9 10 8 5 3 5 11 16 19 17 18 32 18 26 13 35 19 24 27 30 38
19 21 23 26 28 30 32 35 36 35 32 30 30 28 28 25 23 20 19 12 13 18 31 26 21 14 9 9 6 5 6 7 14 14 17 21 23 27 16 17 20 13 26 22 26 31 30
18 19 22 24 26 29 31 32 35 36 33 29 28 28 27 26 24 20 18 16 13 12 23 32 21 20 20 15 9 7 6 5 8 13 26 23 25 18 13 12 19 17 16 33 31 24 26
18 19 20 23 24 27 29 31 32 35 35 33 27 26 23 23 24 22 19 18 14 6 7 23 25 18 13 11 12 11 12 14 33 38 30 25 30 13 16 18 18 9 6 22 29 22 15
19 20 21 22 24 24 25 27 28 29 32 32 27 24 22 18 20 21 17 16 16 10 5 12 20 18 16 14 6 10 14 18 17 19 19 30 29 11 16 19 25 15 11 21 17 18 21
21 21 22 23 23 24 24 24 26 26 28 29 28 22 20 15 16 16 17 15 12 7 4 8 14 14 15 13 17 11 16 21 33 30 28 29 15 11 19 15 24 19 23 16 4 24 3
22 23 23 24 25 24 25 25 23 25 25 26 27 20 18 17 12 14 15 15 6 6 0 5 9 12 13 13 14 18 17 15 17 16 20 16 12 19 28 29 28 25 25 5 4 4 4
24 25 25 25 25 26 25 24 23 23 23 22 22 22 19 14 11 11 13 13 3 4 6 5 4 6 9 8 10 13 18 16 9 14 9 4 10 16 24 21 23 32 26 8 6 7 5
27 27 28 27 26 26 25 23 24 19 20 21 19 18 16 13 12 8 9 5 1 4 6 6 3 3 5 7 4 5 9 17 14 6 5 4 11 11 18 18 32 38 21 8 11 10 6
30 28 28 28 27 27 26 25 22 22 19 19 18 17 13 16 12 10 9 11 5 7 7 4 2 2 2 3 2 3 3 3 6 9 6 12 11 13 16 22 16 30 23 8 9 7 6
29 29 30 29 29 28 26 27 25 20 21 18 19 17 14 14 11 11 10 11 12 12 13 10 8 6 8 4 2 3 4 2 5 6 1 11 12 16 19 15 19 20 29 8 10 5 4
30 29 29 29 28 27 27 26 24 22 18 17 18 16 14 10 10 11 11 11 11 13 14 12 10 11 14 9 7 6 6 8 11 7 7 5 8 13 24 13 16 18 19 25 8 3 4
31 32 30 29 27 27 25 25 23 24 21 17 17 15 11 11 6 11 10 11 13 13 13 10 11 13 15 13 7 8 11 9 11 11 11 9 5 8 11 22 21 21 26 20 15 13 13
38 40 42 41 36 30 27 25 25 26 21 17 17 11 11 14 10 8 16 12 11 16 14 14 16 15 16 16 16 9 8 10 13 15 17 15 11 10 12 7 25 27 30 28 21 17 18
40 42 39 35 35 37 33 22 23 19 15 16 16 13 12 12 16 14 12 18 13 12 17 16 14 13 14 11 14 18 17 15 16 15 17 19 15 23 18 20 13 18 32 36 35 35 27
39 36 32 30 29 29 32 18 22 21 21 22 20 17 16 16 15 17 19 16 15 15 15 16 17 15 12 12 15 10 12 15 17 17 18 22 14 17 23 23 24 23 25 29 41 43 42
33 33 31 28 27 25 25 22 27 32 35 18 19 19 24 23 18 21 21 17 19 18 16 11 12 15 14 14 15 15 16 17 17 17 18 21 19 17 12 17 17 23 38 34 34 39 46
33 31 29 28 27 24 23 24 24 23 16 21 22 24 25 29 29 22 20 20 20 18 16 18 16 15 16 15 15 16 17 18 19 21 22 21 23 22 12 12 5 20 19 19 37 38 37
30 28 28 27 27 24 22 23 24 23 23 23 26 29 29 32 29 23 22 22 21 21 18 18 16 17 17 17 16 13 16 19 23 24 25 25 21 11 8 10 24 22 20 25 28 36 33
31 31 30 29 28 27 26 24 24 22 24 28 29 29 32 34 32 22 21 21 21 20 19 17 16 16 15 14 12 9 8 6 6 6 24 28 26 21 13 6 7 10 20 32 36 38 35
36 33 30 31 30 28 27 26 26 24 24 25 28 29 34 37 27 23 25 25 25 23 19 19 19 17 15 16 15 13 12 11 7 7 9 16 25 30 26 13 12 22 13 12 13 18 18
38 38 36 35 34 30 30 29 29 28 27 26 23 27 32 33 28 27 27 26 25 25 26 23 19 17 17 18 11 11 11 11 11 14 10 10 8 13 16 10 13 19 19 22 21 17 14
42 42 41 38 38 36 36 33 32 30 30 30 28 26 30 34 27 20 19 21 22 23 21 20 21 14 12 9 10 8 11 8 8 6 11 11 19 17 16 11 13 4 7 12 13 17 20
Wind_Direction
24 23 23 20 17 14 10 6 1 358 358 359 356 359 356 356 359 353 351 350 336 328 332 336 333 16 24 354 336 318 305 290 272 229 218 211 203 202 184 211 195 198 193 194 183 176 187
28 28 26 23 20 16 12 8 3 1 1 0 359 2 1 4 5 359 359 356 346 342 341 331 327 355 344 325 325 327 325 293 263 217 206 203 199 208 202 192 186 188 200 191 188 188 189
28 29 27 24 21 18 13 9 4 2 2 2 2 4 6 12 12 9 8 3 353 345 347 321 309 356 322 317 316 329 337 326 296 221 217 196 193 198 192 184 200 186 190 192 196 187 178
26 26 24 22 19 19 16 11 5 3 3 5 5 7 11 18 19 21 21 18 9 2 351 283 302 339 296 317 321 328 348 358 320 179 174 183 187 189 163 168 194 188 178 191 196 181 160
22 22 21 20 18 18 18 13 7 5 4 5 6 7 10 21 28 31 37 27 20 19 9 30 226 327 347 328 328 341 359 15 102 104 145 176 185 191 172 167 168 176 189 188 195 183 187
16 16 16 17 16 16 16 13 9 7 6 6 6 7 6 13 28 34 45 40 37 34 44 64 56 355 353 327 341 327 82 131 172 154 162 175 187 189 193 174 180 191 160 184 191 185 180
10 10 10 11 11 11 11 12 9 7 5 7 8 8 9 6 16 28 35 50 43 41 40 43 34 18 7 0 12 48 88 162 113 128 150 156 174 171 179 183 180 191 156 164 184 178 171
3 4 5 6 8 8 9 8 9 6 4 5 9 8 11 7 10 17 23 29 31 41 40 34 23 17 359 355 64 78 125 111 132 143 150 144 166 166 145 131 175 170 180 185 178 177 192
352 356 358 1 2 3 4 5 5 6 3 3 7 10 8 8 7 13 19 26 29 31 30 27 31 35 40 48 62 77 102 95 139 142 138 139 156 173 219 189 148 146 178 199 197 201 197
340 346 351 354 357 359 1 1 2 2 3 358 2 9 7 5 13 12 16 19 24 50 46 25 29 39 44 57 58 62 56 47 91 105 127 125 142 146 186 193 182 128 223 201 181 191 180
331 336 341 346 350 354 357 357 357 359 0 358 357 4 8 7 0 9 11 15 21 37 40 12 22 42 45 22 51 66 74 63 66 124 129 132 146 165 169 186 170 207 190 151 172 197 183
320 326 330 334 339 343 347 352 353 354 355 357 355 358 3 5 354 352 2 2 16 42 7 14 32 28 21 39 53 79 51 91 95 102 130 137 159 158 149 147 154 171 161 155 176 196 269
312 315 319 323 327 332 336 341 348 348 350 353 352 349 358 358 346 337 344 352 357 62 195 18 47 48 60 63 88 66 80 92 88 100 102 125 145 159 159 156 172 177 178 147 153 203 202
304 307 311 315 319 323 329 332 338 343 343 345 349 345 345 344 333 314 321 332 338 99 126 93 54 59 73 64 64 98 86 110 109 110 79 88 133 141 173 154 171 170 165 167 159 173 186
302 304 305 307 310 314 319 324 326 335 336 336 339 343 336 336 333 328 308 304 233 182 167 149 91 33 39 42 73 110 104 126 124 111 138 127 152 151 179 165 160 171 191 156 121 121 111
300 300 301 303 306 310 314 316 321 324 330 328 327 331 332 336 330 318 303 290 241 208 197 211 294 226 150 34 21 9 2 140 145 139 139 146 155 164 175 178 170 189 168 174 184 150 181
297 298 300 301 304 306 309 311 316 321 321 323 321 323 322 343 331 317 314 291 270 226 215 241 253 243 209 228 257 273 263 223 184 179 214 159 162 174 177 188 193 190 207 226 200 201 155
298 298 298 299 301 302 305 305 309 312 316 318 314 313 308 336 337 329 311 296 274 263 253 248 243 234 221 237 274 280 248 216 212 204 179 171 182 188 194 190 207 221 209 218 217 216 221
294 297 295 294 293 294 295 297 303 307 309 315 308 305 292 299 318 331 321 314 291 273 260 255 243 234 236 248 257 270 265 237 211 210 202 208 201 167 211 223 226 225 221 218 228 277 248
297 288 280 277 277 277 281 286 293 298 300 306 308 297 291 293 291 329 335 314 299 296 281 264 257 248 246 246 240 250 261 255 234 216 207 215 217 222 218 217 218 227 224 225 233 252 250
306 313 314 321 319 291 269 277 282 284 295 302 303 286 275 279 289 300 306 309 307 288 289 288 278 263 256 249 247 245 251 249 243 242 222 216 230 222 227 230 226 240 239 235 233 239 245
309 309 315 316 317 314 297 268 277 269 271 272 283 283 284 281 292 297 292 296 298 302 283 284 286 282 274 264 252 262 244 242 240 240 235 228 235 237 237 236 243 247 239 237 237 240 245
310 310 310 312 313 313 306 276 266 268 273 259 267 281 280 276 286 290 284 286 293 296 293 284 280 285 283 278 271 265 258 251 243 242 240 236 237 243 248 250 248 254 243 234 238 238 240
306 308 309 308 309 309 307 300 296 299 257 267 267 268 270 272 278 279 274 273 282 280 283 293 293 283 281 276 274 268 263 257 251 244 240 238 240 242 250 255 246 249 257 238 239 245 246
299 304 307 307 308 305 305 302 300 293 258 257 259 267 273 272 279 266 266 272 273 273 272 280 277 280 276 267 267 276 270 264 257 246 241 238 234 226 217 228 260 250 257 255 254 261 253
290 292 291 298 300 304 303 304 295 293 286 266 262 266 267 274 284 268 271 270 269 263 278 279 288 283 271 253 244 230 232 238 236 239 232 228 226 222 210 223 221 262 254 258 261 264 266
287 282 282 283 286 288 292 292 298 289 282 280 274 264 262 276 272 264 264 268 268 268 263 278 280 272 264 255 247 243 241 237 238 228 219 216 224 223 228 246 253 243 242 253 226 253 265
288 288 284 275 272 273 276 282 282 291 288 278 277 275 270 272 264 261 261 262 263 263 271 276 266 256 255 248 249 242 238 233 243 239 246 237 233 228 219 230 262 269 252 243 250 248 253
286 285 283 278 274 268 267 262 271 279 278 279 275 275 276 269 266 258 252 255 256 256 253 256 246 246 250 234 239 236 247 248 244 254 247 249 246 252 238 245 269 285 306 305 273 262 261
Height
3120 3115 3109 3104 3099 3094 3090 3085 3080 3075 3070 3065 3058 3052 3047 3042 3037 3032 3028 3024 3021 3018 3015 3012 3011 3008 3006 3006 3004 3002 3000 2998 2996 2996 2998 3003 3008 3012 3019 3022 3027 3038 3046 3056 3068 3070 3078
3121 3116 3111 3106 3100 3095 3090 3085 3079 3075 3070 3065 3058 3052 3046 3041 3036 3031 3027 3024 3020 3017 3014 3011 3010 3007 3006 3006 3002 2999 2997 2995 2993 2993 2995 2999 3005 3010 3017 3019 3026 3033 3045 3056 3063 3068 3074
3122 3117 3113 3108 3102 3096 3090 3085 3079 3074 3070 3064 3057 3052 3047 3041 3036 3031 3027 3023 3020 3016 3012 3011 3009 3007 3005 3004 2999 2997 2995 2992 2990 2990 2993 2997 3003 3010 3017 3020 3026 3035 3044 3054 3058 3067 3070
3123 3119 3114 3109 3103 3097 3091 3085 3079 3074 3070 3064 3058 3052 3047 3042 3036 3031 3027 3024 3020 3015 3010 3009 3008 3007 3004 3002 2998 2997 2993 2991 2990 2987 2988 2995 3003 3008 3016 3023 3027 3035 3044 3051 3057 3060 3066
3124 3119 3115 3110 3105 3099 3092 3086 3080 3075 3070 3064 3058 3052 3047 3042 3036 3031 3028 3025 3020 3014 3007 3006 3008 3007 3005 3000 2997 2995 2993 2991 2990 2989 2992 2998 3004 3009 3014 3019 3026 3033 3040 3048 3056 3061 3070
3125 3121 3116 3111 3106 3100 3094 3088 3081 3075 3069 3065 3059 3054 3048 3043 3037 3032 3029 3026 3022 3017 3012 3009 3008 3010 3005 3000 2997 2995 2993 2992 2992 2992 2996 3001 3007 3013 3018 3020 3022 3032 3039 3048 3054 3058 3069
3124 3121 3117 3112 3107 3102 3096 3090 3083 3076 3070 3065 3059 3054 3049 3044 3038 3033 3030 3028 3027 3022 3016 3013 3011 3008 3003 3000 2997 2996 2994 2993 2993 2996 2999 3004 3009 3014 3018 3024 3027 3035 3041 3046 3054 3064 3070
3124 3121 3117 3112 3108 3102 3097 3091 3084 3078 3072 3066 3061 3055 3050 3045 3039 3034 3031 3028 3024 3025 3020 3016 3012 3008 3004 3001 2999 2997 2995 2994 2994 2997 3000 3006 3009 3017 3020 3026 3032 3035 3044 3049 3056 3057 3072
3124 3121 3117 3113 3108 3103 3097 3092 3086 3079 3073 3066 3061 3056 3051 3046 3041 3036 3032 3029 3025 3023 3022 3019 3015 3010 3006 3005 3003 3001 2998 2994 2993 2998 3003 3007 3015 3024 3028 3029 3035 3040 3046 3049 3058 3062 3068
3123 3120 3117 3113 3109 3104 3098 3093 3087 3080 3075 3069 3063 3058 3053 3048 3045 3038 3034 3030 3027 3025 3025 3026 3019 3016 3013 3008 3007 3005 3003 3000 3002 3005 3010 3015 3021 3028 3029 3033 3040 3043 3051 3050 3059 3062 3064
3121 3118 3115 3112 3108 3104 3098 3092 3087 3081 3075 3069 3065 3060 3054 3049 3045 3041 3038 3032 3030 3028 3030 3031 3027 3023 3015 3012 3013 3010 3009 3006 3004 3008 3014 3021 3025 3030 3029 3034 3042 3047 3050 3052 3060 3064 3066
3117 3115 3112 3109 3106 3101 3097 3092 3086 3082 3075 3069 3064 3061 3056 3052 3046 3043 3039 3036 3033 3033 3036 3035 3031 3026 3021 3016 3017 3016 3014 3014 3011 3015 3021 3023 3026 3028 3030 3034 3042 3046 3053 3058 3061 3065 3068
3113 3111 3108 3105 3102 3098 3095 3090 3085 3080 3075 3069 3064 3059 3056 3053 3049 3043 3040 3039 3037 3032 3039 3037 3033 3029 3024 3024 3024 3022 3021 3020 3020 3022 3024 3028 3030 3029 3032 3037 3043 3045 3053 3058 3067 3065 3064
3108 3107 3103 3100 3097 3094 3091 3087 3083 3078 3074 3069 3063 3059 3055 3051 3048 3044 3040 3040 3037 3035 3034 3034 3032 3031 3027 3027 3028 3026 3025 3025 3025 3027 3028 3029 3036 3035 3034 3036 3036 3044 3048 3047 3058 3061 3061
3104 3101 3099 3096 3092 3089 3086 3083 3080 3074 3071 3067 3063 3058 3054 3051 3047 3043 3042 3038 3036 3034 3033 3032 3032 3032 3029 3028 3029 3029 3028 3027 3028 3029 3031 3033 3035 3035 3035 3037 3040 3041 3043 3047 3051 3056 3058
3098 3095 3093 3091 3088 3084 3081 3078 3075 3073 3067 3064 3060 3056 3052 3048 3046 3043 3041 3037 3036 3035 3033 3032 3031 3031 3031 3029 3028 3027 3029 3028 3028 3029 3031 3033 3036 3034 3035 3037 3038 3040 3045 3046 3045 3053 3056
3091 3089 3087 3085 3083 3080 3076 3073 3070 3067 3065 3061 3058 3053 3050 3046 3043 3042 3039 3036 3034 3034 3034 3033 3031 3030 3029 3029 3028 3027 3026 3028 3028 3028 3027 3028 3031 3035 3034 3034 3037 3040 3039 3041 3041 3040 3043
3084 3082 3080 3078 3076 3073 3071 3067 3064 3062 3059 3057 3055 3051 3048 3043 3043 3039 3036 3035 3034 3032 3030 3030 3029 3028 3028 3028 3027 3026 3025 3025 3025 3025 3026 3027 3027 3030 3032 3034 3035 3035 3037 3041 3039 3039 3040
3078 3076 3073 3070 3067 3065 3063 3061 3059 3056 3053 3051 3050 3047 3045 3043 3039 3037 3035 3034 3032 3030 3028 3026 3026 3025 3026 3026 3028 3025 3022 3022 3023 3024 3024 3025 3026 3029 3033 3035 3032 3032 3035 3038 3038 3039 3038
3067 3064 3062 3059 3057 3057 3056 3055 3053 3053 3049 3048 3047 3045 3041 3039 3038 3034 3033 3032 3031 3028 3025 3024 3023 3022 3022 3022 3023 3022 3022 3021 3021 3023 3023 3024 3023 3022 3022 3023 3026 3028 3031 3034 3035 3034 3033
3060 3057 3054 3051 3048 3047 3046 3047 3047 3045 3043 3043 3042 3040 3038 3035 3035 3031 3030 3029 3026 3025 3023 3021 3018 3018 3018 3019 3018 3019 3019 3019 3019 3019 3021 3023 3022 3021 3021 3021 3021 3022 3024 3027 3027 3027 3028
3051 3049 3046 3044 3042 3038 3037 3038 3039 3037 3036 3037 3038 3036 3033 3031 3030 3029 3028 3025 3023 3021 3020 3019 3017 3015 3014 3014 3015 3014 3015 3015 3016 3016 3016 3017 3018 3019 3019 3020 3020 3019 3019 3018 3019 3022 3023
3043 3041 3039 3037 3035 3032 3030 3030 3031 3030 3029 3029 3029 3028 3027 3026 3025 3025 3024 3021 3020 3018 3016 3015 3014 3014 3012 3012 3010 3010 3010 3010 3011 3012 3012 3013 3013 3014 3013 3015 3015 3011 3009 3012 3012 3013 3015
3037 3034 3032 3030 3028 3027 3025 3023 3023 3022 3022 3023 3022 3020 3020 3017 3018 3018 3018 3016 3014 3013 3012 3011 3010 3009 3009 3008 3007 3006 3005 3004 3004 3006 3007 3007 3008 3009 3008 3010 3009 2999 2999 3003 3006 3007 3009
3030 3028 3025 3023 3022 3020 3019 3017 3015 3013 3014 3014 3015 3013 3011 3007 3010 3010 3010 3009 3009 3008 3007 3006 3006 3005 3003 3003 3003 3003 3001 2999 2997 2998 2999 3001 3003 3003 3004 3001 2996 2993 2994 2995 2997 2996 3001
3022 3020 3018 3017 3015 3013 3012 3010 3008 3007 3006 3005 3006 3005 3003 3001 3001 3002 3002 3003 3002 3002 3001 3001 3001 2999 2999 2998 2998 2996 2996 2993 2991 2991 2991 2993 2996 3000 2999 2996 2992 2987 2989 2989 2990 2987 2988
3011 3009 3008 3008 3007 3007 3006 3004 3001 2998 2997 2997 2997 2996 2994 2992 2994 2994 2994 2995 2995 2996 2996 2995 2996 2995 2993 2993 2993 2991 2990 2990 2988 2986 2986 2987 2989 2991 2993 2991 2985 2984 2986 2986 2987 2985 2982
3000 2999 2997 2996 2995 2995 2996 2995 2994 2992 2989 2989 2989 2988 2985 2983 2985 2986 2987 2988 2988 2988 2989 2989 2990 2989 2988 2988 2988 2986 2984 2983 2983 2982 2982 2983 2985 2985 2988 2989 2983 2979 2980 2981 2980 2978 2979
2989 2987 2985 2984 2983 2982 2983 2984 2984 2983 2981 2979 2980 2980 2977 2974 2976 2977 2977 2978 2979 2980 2981 2980 2982 2983 2983 2982 2983 2982 2981 2979 2978 2979 2978 2980 2978 2979 2980 2977 2975 2975 2976 2975 2974 2974 2975